Weather History for Frankfort, KY

Change the Weather History Date:

Sunday, July 6, 2014

  Actual Average Record
Temperature  
Mean Temperature 72 °F 76 °F  
Max Temperature 85 °F 87 °F 101 °F (2012)
Min Temperature 59 °F 66 °F 49 °F (1972)
Degree Days  
Heating Degree Days 0 0  
Month to date heating degree days 0 0  
Since 1 June heating degree days 3 10  
Since 1 July heating degree days 0 0  
Cooling Degree Days 7 11  
Month to date cooling degree days 39 66  
Year to date cooling degree days 426 401  
Since 1 June cooling degree days 304 302  
Growing Degree Days 22 (Base 50)    
Moisture  
Dew Point 59 °F    
Average Humidity 67    
Maximum Humidity 90    
Minimum Humidity 43    
Precipitation  
Precipitation 0.00 in 0.13 in 3.65 in (1932)
Month to date precipitation 0.66 0.73  
Year to date precipitation 25.36 24.29  
Sea Level Pressure  
Sea Level Pressure 30.04 in    
Wind  
Wind Speed 7 mph (SW)    
Max Wind Speed 22 mph    
Max Gust Speed 28 mph    
Visibility 10 miles    
Events      
T = Trace of Precipitation, MM = Missing Value Source: NWS Daily Summary

Daily Weather History Graph

Daily Weather History Graph

Search for Another Location

Airport:

Trip Planner

Search our weather history database for the weather conditions in past years. The results will help you decide how hot, cold, wet, or windy it might be!

Date:

Astronomy

Jul. 06, 2014 Rise Set
Actual Time 6:22 AM EDT 9:05 PM EDT
Civil Twilight 5:51 AM EDT 9:36 PM EDT
Nautical Twilight 5:12 AM EDT 10:15 PM EDT
Astronomical Twilight 4:28 AM EDT 10:59 PM EDT
Moon 3:08 PM EDT (7/6) 1:37 AM EDT (7/6)
Length of Visible Light 15h 45m
Length of Day
14h 43m
Waxing Gibbous, 62% of the Moon is Illuminated
Jul 6
Waxing Gibbous
Jul 12
Full
Jul 18
Last Quarter
Jul 26
New
Aug 3
First Quarter

Hourly Weather History & Observations

Time (EDT) Temp. Heat Index Dew Point Humidity Pressure Visibility Wind Dir Wind Speed Gust Speed Precip Events Conditions
12:53 AM 63.0 °F - 55.9 °F 78% 30.11 in 10.0 mi Calm Calm - N/A   Clear
1:53 AM 63.0 °F - 55.0 °F 75% 30.10 in 10.0 mi Calm Calm - N/A   Clear
2:53 AM 62.1 °F - 55.9 °F 80% 30.09 in 10.0 mi Calm Calm - N/A   Clear
3:53 AM 62.1 °F - 57.0 °F 84% 30.08 in 10.0 mi Calm Calm - N/A   Clear
4:53 AM 61.0 °F - 57.0 °F 87% 30.08 in 10.0 mi Calm Calm - N/A   Mostly Cloudy
5:53 AM 61.0 °F - 57.0 °F 87% 30.08 in 10.0 mi Calm Calm - N/A   Mostly Cloudy
6:53 AM 61.0 °F - 57.9 °F 90% 30.07 in 10.0 mi SE 4.6 mph - N/A   Clear
7:53 AM 66.0 °F - 57.9 °F 75% 30.07 in 10.0 mi South 6.9 mph - N/A   Clear
8:53 AM 71.1 °F - 60.1 °F 68% 30.09 in 10.0 mi SW 6.9 mph - N/A   Clear
9:53 AM 75.9 °F - 61.0 °F 60% 30.09 in 10.0 mi SW 6.9 mph - N/A   Clear
10:53 AM 78.1 °F - 60.1 °F 54% 30.08 in 10.0 mi SW 11.5 mph - N/A   Mostly Cloudy
11:53 AM 81.0 °F 81.3 °F 59.0 °F 47% 30.07 in 10.0 mi SW 11.5 mph - N/A   Scattered Clouds
12:53 PM 82.9 °F 82.8 °F 59.0 °F 44% 30.06 in 10.0 mi WSW 15.0 mph 24.2 mph N/A   Mostly Cloudy
1:53 PM 82.9 °F 83.2 °F 60.1 °F 46% 30.05 in 10.0 mi SW 15.0 mph 21.9 mph N/A   Mostly Cloudy
2:53 PM 84.9 °F 84.8 °F 60.1 °F 43% 30.03 in 10.0 mi SW 13.8 mph 18.4 mph N/A   Clear
4:53 PM 84.0 °F 83.8 °F 59.0 °F 43% 30.00 in 10.0 mi WSW 11.5 mph - N/A   Clear
5:53 PM 84.0 °F 84.4 °F 61.0 °F 46% 29.98 in 10.0 mi WSW 8.1 mph 19.6 mph N/A   Clear
6:53 PM 82.0 °F 82.4 °F 60.1 °F 47% 29.97 in 10.0 mi WSW 8.1 mph - N/A   Partly Cloudy
7:53 PM 81.0 °F 82.2 °F 63.0 °F 54% 29.96 in 10.0 mi WSW 6.9 mph - N/A   Clear
8:53 PM 77.0 °F - 63.0 °F 62% 29.95 in 10.0 mi South 4.6 mph - N/A   Clear
9:53 PM 75.9 °F - 63.0 °F 64% 29.95 in 10.0 mi WSW 3.5 mph - N/A   Clear
10:53 PM 73.0 °F - 63.0 °F 71% 29.96 in 10.0 mi SW 4.6 mph - N/A   Clear
11:53 PM 71.1 °F - 63.0 °F 75% 29.96 in 10.0 mi SW 3.5 mph - N/A   Clear